Location: *
(28.3744°N, 81.5492°W)
Time: 04:10:25
(UTC+00:00)

ATLAS 5 CENTAUR R/B - Pass Details

Date: 15 June 2025
Orbit: 385 x 1113 km, 63.3° (Epoch: 11 July)

Event Time Altitude Azimuth Distance (km) Brightness Sun altitude
Exits shadow 08:13:09 13° 342° (NNW) 1,226 3.4 -24.6°
Drops below altitude 10° 08:13:50 10° 352° (N) 1,419 3.9 -24.5°
Sets 08:16:17 0° 11° (NNE) 2,315 5.4 -24.1°
